Tracking 35055 objects as of 19-Aug-2026
HD Live streaming from Space Station
objects crossing your sky now

STARLINK-32326

Track STARLINK-32326 now!
10-day predictions
STARLINK-32326 is classified as:


NORAD ID: 61674
Int'l Code: 2024-193P
Launch date: October 26, 2024
Source: United States (US)
Launch site: AIR FORCE EASTERN TEST RANGE (AFETR)
Your satellite tracking list
Your tracking list is empty




NASA's NSSDC Master Catalog

Two Line Element Set (TLE):
1 61674U 24193P   26230.49005061  .00001066  00000-0  46101-4 0  9990
2 61674  53.1614  58.4206 0001297  95.7860 264.3290 15.31708146101313
Source of the keplerian elements: AFSPC